Header for Extended Forecast Station List Page

Search by: ID | Name | Date | Parm | Value | Avg | % Avg
Sort by: ID | Name | Date | Parm | Value | Avg | % Avg

Enter search or view all records.

Click on id for station plot
#IDNameDateParmValueAvg% Avg
0ABOM8CLARK FORK-ABOVE MISSOULA12-06-2021DISCHARGE (KAF)30134986
1AFRI1SNAKE-AMERICAN FALLS RESERVOIR12-06-2021INFLOW (KAF)1146121295
2ALFW1PEND OREILLE-ALBENI FALLS DAM12-06-2021INFLOW (KAF)4106414399
3ALPW4SNAKE-NEAR ALPINE12-06-2021DISCHARGE (KAF)30137780
4ANAW1SNAKE-NEAR ANATONE12-06-2021DISCHARGE (KAF)4427585776
5ANTI1HENRYS FORK-AT ST. ANTHONY12-06-2021DISCHARGE (KAF)31038281
6ARAI1SF BOISE-ANDERSON RANCH DAM12-06-2021INFLOW (KAF)749776
7ARDW1ENTIAT-NEAR ARDENVOIR12-06-2021DISCHARGE (KAF)4127148
8BELM8CLARK FORK-BELOW MISSOULA12-06-2021DISCHARGE (KAF)53758092
9BERO3MALHEUR-AGENCY VALLEY DAM12-06-2021INFLOW (KAF)202678
10BFEI1KOOTENAI-AT BONNERS FERRY12-06-2021STAGE (FT)MMM
11BFTI1SNAKE-NEAR BLACKFOOT12-06-2021DISCHARGE (KAF)50558786
12BIGI1BOISE-AT GLENWOOD BRIDGE12-06-2021DISCHARGE (KAF)13466202
13BITM8BITTERROOT-NEAR MISSOULA12-06-2021DISCHARGE (KAF)236219107
14BONM8BLACKFOOT-NEAR BONNER12-06-2021DISCHARGE (KAF)12414983
15BONO3COLUMBIA-BONNEVILLE DAM12-06-2021INFLOW (KAF)362173931592
16BRNI1SNAKE-BROWNLEE DAM12-06-2021INFLOW (KAF)3054328793
17BUDW1BUMPING-BUMPING LAKE DAM12-06-2021INFLOW (KAF)284070
18BULO3BULLY CREEK-BULLY CREEK DAM12-06-2021INFLOW (KAF)205404
19CABI1CLARK FORK-CABINET GORGE DAM12-06-2021INFLOW (KAF)36793622102
20CFMM8FLATHEAD-AT COLUMBIA FALLS12-06-2021DISCHARGE (KAF)1279985130
21CHDW1CHELAN-LAKE CHELAN DAM12-06-2021INFLOW (KAF)348211165
22CHEI1FALL RIVER-NEAR CHESTER12-06-2021DISCHARGE (KAF)9611385
23CHJW1COLUMBIA-CHIEF JOSEPH DAM12-06-2021INFLOW (KAF)2447823863103
24CIBW1COLUMBIA-AT INTL BOUNDARY12-06-2021DISCHARGE (KAF)2073819652106
25CLFW1NACHES-NEAR CLIFFDEL12-06-2021DISCHARGE (KAF)9313668
26CLUW1CLE ELUM-CLE ELUM LAKE12-06-2021INFLOW (KAF)10111985
27COEI1COEUR D ALENE-COEUR D ALENE LAKE12-06-2021INFLOW (KAF)1095134382
28CSDI1NF PAYETTE-CASCADE DAM12-06-2021INFLOW (KAF)8411772
29DEDI1DEADWOOD-NEAR LOWMAN12-06-2021INFLOW (KAF)142070
30DLGM8CLARK FORK-AT DEER LODGE12-06-2021DISCHARGE (KAF)5452104
31DRMM8CLARK FORK-NR DRUMMOND12-06-2021DISCHARGE (KAF)11712891
32DWRI1NF CLEARWATER-DWORSHAK DAM12-06-2021INFLOW (KAF)88089399
33EASW1YAKIMA-AT EASTON12-06-2021DISCHARGE (KAF)738486
34EMMI1PAYETTE-NEAR EMMETT12-06-2021DISCHARGE (KAF)34439587
35FCFM8NF FLATHEAD-NEAR COLUMBIA FALLS12-06-2021DISCHARGE (KAF)402190212
36GCDW1COLUMBIA-GRAND COULEE DAM12-06-2021INFLOW (KAF)2232721610103
37GIBO3UMATILLA-NEAR GIBBON12-06-2021DISCHARGE (KAF)556091
38HALI1BIG WOOD-AT HAILEY12-06-2021DISCHARGE (KAF)244061
39HEII1SNAKE-NEAR HEISE12-06-2021DISCHARGE (KAF)39539999
40HHWM8SF FLATHEAD-HUNGRY HORSE DAM12-06-2021INFLOW (KAF)281271104
41HODO3HOOD-NEAR TUCKER BRIDGE12-06-2021DISCHARGE (KAF)295252117
42HOPI1PEND OREILLE-PEND OREILLE LAKE NR HOPE12-06-2021LAKE ELEVATION (FT)MMM
43HOTI1BRUNEAU-NEAR HOT SPRINGS12-06-2021DISCHARGE (KAF)263966
44HWRI1BIG LOST-AT HOWELL RANCH NEAR CHILLY12-06-2021DISCHARGE (KAF)151882
45IHDW1SNAKE-ICE HARBOR DAM12-06-2021INFLOW (KAF)6156836374
46IPDI1HENRYS FORK-ISLAND PARK DAM12-06-2021INFLOW (KAF)7310570
47JDAO3COLUMBIA-JOHN DAY DAM12-06-2021INFLOW (KAF)347973683594
48JKSW4SNAKE-NEAR JACKSON12-06-2021DISCHARGE (KAF)24331777
49JLKW4SNAKE-JACKSON LAKE AT DAM12-06-2021INFLOW (KAF)9111877
50KADW1KACHESS-KACHESS DAM12-06-2021INFLOW (KAF)5252100
51KEDW1YAKIMA-KEECHELUS LAKE12-06-2021INFLOW (KAF)525397
52KERM8FLATHEAD-SELI’Š KSANKA QLISPE’ DAM12-06-2021INFLOW (KAF)14481453100
53KIOW1YAKIMA-AT KIONA12-06-2021DISCHARGE (KAF)61185971
54LAUW1KETTLE-AT LAURIER12-06-2021DISCHARGE (KAF)16818491
55LEOI1KOOTENAI-AT LEONIA12-06-2021DISCHARGE (KAF)32452252144
56LGDW1SNAKE-LOWER GRANITE DAM12-06-2021INFLOW (KAF)5875813672
57LGSW1SNAKE-LITTLE GOOSE DAM12-06-2021INFLOW (KAF)5875817972
58LLKW1SPOKANE-AT LONGLAKE12-06-2021INFLOW (KAF)1326171977
59LMNW1SNAKE-LOWER MONUMENTAL DAM12-06-2021INFLOW (KAF)6156833374
60LUCI1BOISE-LUCKY PEAK DAM12-06-2021INFLOW (KAF)21322595
61LWRI1LITTLE WOOD-LITTLE WOOD DAM12-06-2021INFLOW (KAF)141781
62LYDM8KOOTENAI-LIBBY DAM12-06-2021INFLOW (KAF)1142843135
63MACI1BIG LOST-MACKAY RESERVOIR NEAR MACKAY12-06-2021INFLOW (KAF)273871
64MAGI1BIG WOOD-MAGIC DAM12-06-2021INFLOW (KAF)203753
65MCDW1COLUMBIA-MCNARY DAM12-06-2021INFLOW (KAF)332873509495
66MILI1SNAKE-AT MILNER12-06-2021DISCHARGE (KAF)M54M
67MODO3DESCHUTES-AT MOODY NR BIGGS12-06-2021DISCHARGE (KAF)1259143488
68MONO3NF JOHN DAY-AT MONUMENT12-06-2021DISCHARGE (KAF)10927040
69MYKO3MCKAY CREEK-NEAR PILOT ROCK12-06-2021DISCHARGE (KAF)4038104
70NACW1NACHES-NEAR NACHES12-06-2021DISCHARGE (KAF)8719046
71NOXM8CLARK FORK-NOXON RAPIDS DAM12-06-2021INFLOW (KAF)33323150106
72ORFI1CLEARWATER-AT OROFINO12-06-2021DISCHARGE (KAF)825112573
73OWYO3OWYHEE-OWYHEE DAM12-06-2021INFLOW (KAF)257173149
74PARI1BOISE-NEAR PARMA12-06-2021DISCHARGE (KAF)279198141
75PARW1YAKIMA-NEAR PARKER12-06-2021DISCHARGE (KAF)44759475
76PATW1METHOW-NEAR PATEROS12-06-2021DISCHARGE (KAF)138113122
77PDTO3UMATILLA-AT PENDLETON12-06-2021DISCHARGE (KAF)13415587
78PESW1WENATCHEE-AT PESHASTIN12-06-2021DISCHARGE (KAF)435349125
79PIHI1PORTNEUF-AT POCATELLO12-06-2021DISCHARGE (KAF)425773
80PITW1KLICKITAT-NEAR PITT12-06-2021DISCHARGE (KAF)409392104
81PLDI1SF SNAKE-PALISADES DAM12-06-2021INFLOW (KAF)45859477
82PRTI1PRIEST-NEAR PRIEST RIVER12-06-2021DISCHARGE (KAF)20625481
83PRWW1COLUMBIA-PRIEST RAPIDS DAM12-06-2021INFLOW (KAF)2626125629102
84RCCM8ROCK CREEK-NEAR CLINTON12-06-2021DISCHARGE (KAF)4847103
85REXI1HENRYS FORK-AT REXBURG12-06-2021DISCHARGE (KAF)36743784
86RIDI1WILLOW CREEK-RIRIE DAM12-06-2021INFLOW (KAF)91561
87RILW1TIETON-RIMROCK LAKE NEAR RIMROCK12-06-2021INFLOW (KAF)577873
88RRHW1COLUMBIA-ROCKY REACH DAM12-06-2021INFLOW (KAF)2578424937103
89SATI1ST MARIES-NEAR SANTA12-06-2021DISCHARGE (KAF)298236
90SERO3JOHN DAY-AT SERVICE CK12-06-2021DISCHARGE (KAF)19142245
91SHYI1SNAKE-NEAR SHELLEY12-06-2021DISCHARGE (KAF)58368785
92SIFI1SNAKE-AB EAGLE ROCK NR IDAHO FALLS12-06-2021DISCHARGE (KAF)60768489
93SJMI1ST JOE-AT ST MARIES12-06-2021STAGE (FT)MMM
94SNAI1SNAKE-AT BLACKFOOT12-06-2021DISCHARGE (KAF)50560084
95SPDI1CLEARWATER-AT SPALDING12-06-2021DISCHARGE (KAF)1449210369
96SPOW1SPOKANE-AT SPOKANE12-06-2021DISCHARGE (KAF)1034143672
97SRGM8CLARK FORK-AT ST REGIS12-06-2021DISCHARGE (KAF)67478486
98STRM8ST. REGIS-NEAR ST. REGIS12-06-2021DISCHARGE (KAF)335659
99SWAI1SNAKE-BELOW SWAN FALLS12-06-2021DISCHARGE (KAF)1712187891
100TCHW1WALLA WALLA-NEAR TOUCHET12-06-2021DISCHARGE (KAF)14920872
101TDAO3COLUMBIA-THE DALLES DAM12-06-2021INFLOW (KAF)352343750694
102TEAI1TETON-NEAR ST. ANTHONY12-06-2021DISCHARGE (KAF)779978
103TNAW1TEANAWAY-BELOW FORKS12-06-2021DISCHARGE (KAF)6565101
104TONW1OKANOGAN-NEAR TONASKET12-06-2021DISCHARGE (KAF)406322126
105TRYO3GRANDE RONDE-TROY12-06-2021DISCHARGE (KAF)34956862
106UMAO3UMATILLA-NEAR UMATILLA12-06-2021DISCHARGE (KAF)14314797
107UMTW1YAKIMA-AT UMTANUM12-06-2021DISCHARGE (KAF)30436184
108UNDW1WHITE SALMON-NEAR UNDERWOOD12-06-2021DISCHARGE (KAF)28729498
109WANW1COLUMBIA-WANAPUM DAM12-06-2021INFLOW (KAF)2624825553103
110WEII1SNAKE-AT WEISER12-06-2021DISCHARGE (KAF)2827303393
111WELW1COLUMBIA-WELLS DAM12-06-2021INFLOW (KAF)2503424522102
112WGCM8MF FLATHEAD-NEAR WEST GLACIER12-06-2021DISCHARGE (KAF)245171143
113WHBI1SALMON-AT WHITEBIRD12-06-2021DISCHARGE (KAF)937112483
114WRMO3MALHEUR-WARM SPRINGS DAM12-06-2021INFLOW (KAF)314865
115WSRI1WEISER-NEAR WEISER12-06-2021DISCHARGE (KAF)20921697